Showing default

OMNI-L1, 52157

Orbit data source: Space-Track

OMNI-L1, 52157 is a payload satellite owned by OmniSpace (US) in SSO that was launched on Fri, 01 Apr 2022 UTC via an FALCON 9 launch vehicle from the Air Force Eastern Test Range (AFETR). Payload-class satellites include a variety of spacecraft equipped with specific instruments for various scientific and technological missions. These include communications satellites like Starlink; space stations such as the ISS; scientific satellites like the Hubble; Earth observation satellites from companies like Planet Labs, Umbra, and HawkEye 360; GPS; miniature CubeSats for education and research; and military/defense satellites.

Loading next visibility...
Identifier
52157, 2022-033A
Orbit
SSO
Last TLE update
13 hours ago
Origin
Manufacturer
NANAV/THALES
Mission
Operational Commercial Communications
Bus & Motor
CUBESAT 12U, Unknown motor
Mass
~20 kg wet, ~20 kg dry
Launch date (UTC)
2022-04-01 (3 years ago)
Launch vehicle
FALCON 9
Launch site
Air Force Eastern Test Range (AFETR)
Object type
Payload
Rocket body
Debris
Shape & HBR
Box + 2 Pan, 1 m
Radar Cross Section
0.126 m², Medium (>0.1 m² and < 1m²)

Expand to show TLE details & history

TLE from 13 hours ago
0 OMNI-L1
1 52157U 22033A   25191.76865996  .00001148  00000-0  15570-3 0  9999
2 52157  97.8688 272.5034 0004508 329.2874  30.8074 14.80792105176893
Epoch: 2025-07-10T18:26Z
TLE epoch observation values (Epoch: 2025-07-10T18:26:52.22Z)
Latitude
-0.00003°
Longitude
66.85562°
Altitude
627.136 km
Speed
7.546 km/s
True Right ascension
18h 10m 00s
True Declination
0° 00' 00"
Sunlit
Object was in full shadow at epoch
Visualization orbit readout
Latitude
76.55974°
Longitude
-77.48215°
Altitude
641.999 km
Speed
7.543 km/s
Apparent Right ascension
08h 15m 41s
Apparent Declination
22° 43' 45"
Sunlit
Object is in daylight
Visualization observer readout
Local Sidereal Time
20:10:01
Azimuth
358.529° N
Elevation
-27.341°
Doppler factor
1
Orbital elements
Apogee altitude
627.02 km
Perigee altitude
620.707 km
Semi-major axis
7,002 km
Eccentricity
0.00045
Inclination
97.8688°
RAAN
272.5034°
Arg. of periapsis
329.2874°
True anomaly
Unknown
Mean anomaly
30.8074°
Eccentric anomaly
Unknown
Mean motion
3.70433 °/min
Orbital period
97.18 mins
BSTAR
0.0001557
Loading maneuver chart data...
Loading SW <> Apogee altitude chart data...

OMNI-L1 Visibility forecast

Observer location: undefined°, undefined°

Span
Click to sort rows by Start time (UTC) header in descending order
Start Az.
Max El. time (UTC)
Max El. Az.
Max El.
End time (UTC)
End Az.
7 mins2025-07-11 17:43:34.285Z32.607° NE2025-07-11 17:47:34.285Z110.887° ESE30.271°2025-07-11 17:50:34.285Z161.615° S
4 mins2025-07-11 19:21:34.285Z320.721° NNW2025-07-11 19:23:34.285Z285.388° WNW18.203°2025-07-11 19:25:34.285Z254.705° W
5 mins2025-07-12 04:39:34.285Z113.898° SE2025-07-12 04:41:34.285Z75.889° E24.642°2025-07-12 04:44:34.285Z19.365° NNE
6 mins2025-07-12 06:15:34.285Z220.064° SW2025-07-12 06:17:34.285Z254.475° W22.31°2025-07-12 06:21:34.285Z320.06° NNW
|